[Date Prev][Date Next][Thread Prev][Thread Next] - [Date Index][Thread Index][Author Index]

MIR & ISS Keps 4-23



MIR
1 16609U 86017A   99113.43067576 -.00217463  00000-0 -15059-2 0  4267
2 16609  51.6606 264.2682 0014239  48.9748 311.2687 15.74176453752798
ISS
1 25544U 98067A   99113.12596466  .00016846  00000-0  20829-3 0  5166
2 25544  51.5924 115.2328 0005658  26.0525 334.0850 15.60228795 24008

----
Via the sarex mailing list at AMSAT.ORG courtesy of AMSAT-NA.
To unsubscribe, send "unsubscribe sarex" to Majordomo@amsat.org



AMSAT Top AMSAT Home